KIND Airport Diagram

We have created a template for each of the higher traffic airports in the vZID airspace. They include KCMH, KCRW, KCVG, KDAY, KIND, KLEX and KSDF. You wil find usefull information including the airport diagram, weather, and specific airport procedures.

KIND Weather

[Source: ADDS]
METAR
KIND 232354Z 11004KT 10SM SCT140 BKN250 10/M07 A3024 RMK AO2 SLP246 T01001072 10122 20078 56009 =
KIND 232320Z 2400/2506 15005KT P6SM SCT140 BKN250 FM241300 VRB04KT P6SM VCSH BKN060 FM241800 17006KT 3SM -SHRA BR OVC021 FM250000 17005KT 6SM -SHRA BR OVC009
TAF
KIND 232320Z 2400/2506 15005KT P6SM SCT140 BKN250 FM241300 VRB04KT P6SM VCSH BKN060 FM241800 17006KT 3SM -SHRA BR OVC021 FM250000 17005KT 6SM -SHRA BR OVC009 =

KIND Operations

 Calm Wind Configuration is runways 23L/R, up to and including 10kts.

Runway 23L typically departs South and East, Runway 23R typically departs North and West.

FedEx pilots should expect runway 23L or 5R.

Contraflow (noise abatement) procedures from 2200L to 0600L, landing Runway 5R, departing Runway 23R, weather permitted.

New Scenery is available at FlightSim.com and Blueprint Simulations. On initial contact, arriving aircraft should notify the the controller if their scenery has the Midfield Terminal.

FBOs: Signature is near taxiway D and Millionaire is near taxiway A, both are North of taxiway M.

 

JSN Epic template designed by JoomlaShine.com